SCP
-0 -0 -0 -0 0 0 0 0 0 0 0 0 0 0 0 0 0 0 0 0 -0 -0 -0 -0 -0 -0 0 0 0 0 -0 -0 -0 0 -0 -0 -0 0 0 0 0 0 0 -0 0 0 0
-0 -0 -0 -0 -0 0 0 0 0 0 0 0 0 0 0 0 0 0 0 -0 -0 -0 -0 -0 -0 -0 0 0 0 0 0 0 0 -0 0 0 -0 -0 0 0 0 0 0 0 0 0 0
-0 -0 -0 -0 -0 -0 0 0 0 0 0 0 0 0 0 0 0 -0 -0 0 -0 -0 -0 -0 0 0 0 0 0 0 0 0 -0 0 -0 0 0 -0 0 0 0 0 0 0 0 0 0
-0 -0 -0 -0 -0 -0 -0 0 0 0 0 0 0 0 0 0 0 0 -0 -0 -0 -0 0 0 0 0 0 0 0 0 0 0 0 -0 0 0 0 0 0 0 0 0 0 0 0 0 0
-0 -0 -0 -0 -0 -0 -0 -0 0 0 0 0 0 0 0 0 0 0 -0 -0 -0 0 0 0 0 0 0 -0 0 0 0 0 0 0 0 0 0 0 0 0 0 0 0 0 0 0 0
-0 -0 -0 -0 -0 -0 -0 -0 -0 0 0 0 0 0 0 0 0 0 -0 0 0 0 0 0 0 0 0 0 0 -0 0 0 0 0 0 0 0 0 0 0 0 0 0 0 0 0 0
0 -0 -0 -0 -0 -0 -0 -0 -0 0 0 0 0 0 0 0 0 0 0 0 0 0 0 0 0 0 0 0 0 0 0 0 0 0 0 0 0 0 0 0 0 0 0 0 0 0 0
0 0 -0 -0 -0 -0 -0 -0 -0 -0 0 0 0 0 0 0 0 0 0 0 0 0 0 0 0 0 0 0 0 0 -0 0 0 0 0 0 0 0 0 0 0 0 0 0 0 0 0
0 0 0 -0 -0 -0 -0 -0 -0 -0 -0 0 0 0 0 0 0 0 0 0 0 0 0 0 0 0 0 0 0 0 0 0 0 0 0 0 0 0 0 0 0 0 0 0 0 0 0
0 0 0 0 -0 -0 -0 -0 -0 -0 -0 -0 0 0 0 0 0 0 0 0 0 -0 0 0 0 0 -0 0 0 -0 0 0 0 0 0 0 0 0 0 0 0 0 0 0 0 0 0
0 0 0 0 0 0 -0 -0 -0 -0 -0 -0 0 0 0 0 0 0 0 0 -0 0 0 0 0 0 0 -0 0 0 0 0 0 0 0 0 0 0 0 0 0 0 0 0 0 0 0
0 0 0 0 0 0 0 -0 -0 -0 -0 -0 0 0 0 0 0 0 0 0 0 0 0 0 0 -0 0 0 0 -0 -0 0 0 0 0 0 0 0 0 0 0 0 0 0 0 0 0
0 0 0 0 0 0 0 0 -0 -0 -0 -0 0 0 0 0 0 0 0 0 0 0 0 0 0 0 0 0 0 0 0 0 0 0 0 0 0 0 0 0 0 0 0 0 0 0 0
0 0 0 0 0 0 0 0 0 -0 -0 -0 0 0 0 0 0 0 0 0 0 0 0 0 0 0 0 0 0 0 0 0 0 0 0 0 0 0 0 0 0 0 0 0 0 0 0
0 0 0 0 0 0 0 0 0 0 0 0 0 0 0 0 0 0 0 0 0 0 0 0 0 0 0 0 0 0 0 0 0 0 0 0 0 0 0 0 0 0 0 0 0 0 0
0 0 0 0 0 0 0 0 0 0 0 0 0 0 0 0 0 0 0 0 0 0 0 0 0 0 0 0 0 0 0 0 0 0 0 0 0 0 0 0 0 0 0 0 0 0 0
0 0 0 0 0 0 0 0 0 0 0 0 0 0 0 0 0 0 0 0 0 0 0 0 0 0 0 0 0 0 0 0 0 0 0 0 0 0 0 0 0 0 0 0 0 0 0
0 0 0 0 0 0 0 0 0 0 0 0 0 0 0 0 0 0 0 0 0 0 0 0 0 0 0 0 0 0 0 0 0 0 0 0 0 0 0 0 0 0 0 0 0 0 0
0 0 0 0 0 0 0 0 0 0 0 0 0 0 0 0 0 0 0 0 0 0 0 0 0 0 0 0 0 0 0 0 0 0 0 0 0 0 0 0 0 0 0 0 0 0 0
0 0 0 0 0 0 0 0 0 0 0 0 0 0 0 0 0 0 0 0 0 0 0 0 0 0 0 0 0 0 0 0 0 0 0 0 0 0 0 0 0 0 0 0 0 0 0
0 0 0 0 0 0 0 0 0 0 0 0 0 0 0 0 0 0 0 0 0 0 0 0 0 0 0 0 0 0 0 0 0 0 0 0 0 0 0 0 0 0 0 0 0 0 0
0 0 0 0 0 0 0 0 0 0 0 0 0 0 0 0 0 0 0 0 0 0 0 0 0 0 0 0 0 0 0 0 0 0 0 0 0 0 0 0 0 0 0 0 0 0 0
0 0 0 0 0 0 0 0 0 0 0 0 0 0 0 0 0 0 0 0 0 0 0 0 0 0 0 0 0 0 0 0 0 0 0 0 0 0 0 0 0 0 0 0 0 0 0
0 0 0 0 0 0 0 0 0 0 0 0 0 0 0 0 0 0 0 0 0 0 0 0 0 0 0 0 0 0 0 0 0 0 0 0 0 0 0 0 0 0 0 0 0 0 0
0 0 0 0 0 0 0 0 0 0 0 0 0 0 0 0 0 0 0 0 0 0 0 0 0 0 0 0 0 0 0 0 0 0 0 0 0 0 0 0 0 0 0 0 0 0 0
0 0 0 0 0 0 0 0 0 0 0 0 0 0 0 0 0 0 0 0 0 0 0 0 0 0 0 0 0 0 0 0 0 0 0 0 0 0 0 0 0 0 0 0 0 0 0
0 0 0 0 0 0 0 0 0 0 0 0 0 0 0 0 0 0 0 0 0 0 0 0 0 0 0 0 0 0 0 0 0 0 0 0 0 0 0 0 0 0 0 0 0 0 0
0 0 0 0 0 0 0 0 0 0 0 0 0 0 0 0 0 0 0 0 0 0 0 0 0 0 0 0 0 0 0 0 0 0 0 0 0 0 0 0 0 0 0 0 0 0 0
0 0 0 0 0 0 0 0 0 0 0 0 0 0 0 0 0 0 0 0 0 0 0 0 0 0 0 0 0 0 0 0 0 0 0 0 0 0 0 0 0 0 0 0 0 0 0
Wind_Speed_500mb
49 41 30 23 17 12 8 4 3 5 5 5 7 9 9 8 8 9 9 7 1 5 10 13 16 20 22 12 15 15 11 8 10 14 17 13 19 7 7 4 10 2 7 9 13 21 22
54 52 46 34 24 18 13 10 6 4 5 7 9 9 8 8 8 8 8 6 1 5 9 12 15 20 14 11 15 11 11 13 12 13 14 14 11 10 8 5 5 7 15 17 12 17 11
55 54 52 48 39 26 17 12 9 7 6 6 7 7 8 8 7 8 8 6 3 4 8 12 15 20 8 7 12 11 14 16 14 16 12 10 10 11 5 4 8 10 11 16 16 8 8
51 52 53 52 48 42 28 15 8 5 4 4 5 6 7 6 7 7 7 6 5 4 7 10 14 15 3 8 9 11 10 13 10 15 12 6 8 10 6 5 8 7 8 13 7 3 9
46 48 50 50 50 48 43 29 13 5 2 4 5 5 5 5 5 5 6 7 5 4 6 9 10 13 6 9 10 7 6 9 6 9 10 7 6 9 5 6 5 11 6 9 7 6 8
42 44 46 47 48 48 48 43 28 12 3 2 3 4 3 4 4 4 4 6 4 4 4 5 6 4 9 13 9 6 1 5 2 4 4 6 10 5 5 2 7 6 8 7 9 5 11
38 40 42 44 45 47 48 49 42 24 10 2 2 3 4 4 5 9 1 6 2 2 1 2 6 8 6 18 3 3 1 2 3 13 5 11 8 11 8 11 13 14 7 3 5 6 6
34 36 38 40 41 43 45 47 48 35 20 8 2 4 6 8 15 19 17 12 10 1 3 7 11 16 15 10 4 9 7 3 8 7 1 6 13 6 12 12 12 7 4 6 4 5 8
30 33 35 37 39 40 42 44 45 44 29 15 4 5 9 16 14 16 21 18 13 9 1 3 8 10 3 1 2 6 6 9 11 9 6 8 9 8 2 7 6 4 3 2 8 10 2
28 30 32 34 36 37 39 40 40 41 36 24 7 5 13 12 13 15 18 15 14 11 5 5 5 4 9 4 4 2 6 4 6 13 11 11 4 2 3 5 2 2 2 7 10 8 14
26 29 31 32 34 35 36 37 37 37 36 29 13 5 14 13 12 17 11 10 10 6 5 1 5 3 12 8 7 4 5 3 7 8 6 5 12 4 2 4 1 4 6 4 3 4 5
23 26 29 31 33 33 34 35 35 34 34 30 17 5 16 13 13 11 6 7 7 3 2 3 4 6 10 4 3 6 6 14 8 9 14 5 0 1 2 4 5 4 4 6 5 2 5
23 25 27 29 32 34 33 33 34 33 31 29 22 4 19 10 6 4 3 6 3 2 5 3 2 5 8 6 4 4 5 6 2 5 3 3 3 4 2 6 6 7 9 6 2 1 4
23 25 27 29 30 32 33 33 32 33 30 27 22 5 19 16 8 3 4 6 2 2 6 5 5 5 11 9 4 4 6 7 5 5 5 6 5 1 5 4 4 7 3 3 8 7 11
23 26 28 30 31 32 33 33 31 30 30 24 20 5 8 21 16 3 2 2 5 7 4 9 2 4 4 5 6 6 1 8 4 6 7 9 5 1 9 4 6 5 1 4 5 1 6
25 27 29 31 32 33 33 33 31 29 27 24 20 6 5 15 25 10 5 5 5 7 8 3 2 1 6 5 10 10 12 3 5 1 2 8 4 1 5 5 19 3 13 3 2 6 8
23 26 28 30 32 33 34 34 32 29 24 19 13 7 3 22 19 6 4 6 7 11 7 4 2 3 5 6 5 6 9 3 0 5 6 6 1 3 5 5 2 5 4 8 2 3 5
26 26 27 29 30 30 31 32 32 30 23 13 4 3 2 24 6 3 5 7 4 9 6 10 4 3 4 5 6 5 7 2 5 4 5 3 5 4 4 3 9 4 1 3 5 5 1
29 29 29 29 29 28 28 29 29 27 25 19 13 2 2 22 6 4 3 4 6 6 6 3 6 1 2 6 6 4 5 4 4 5 8 11 4 3 4 5 4 3 5 7 8 1 12
34 33 33 33 30 29 26 25 24 22 18 16 7 1 4 8 8 8 7 2 4 6 5 4 2 4 5 5 9 7 5 3 4 9 15 9 6 6 5 4 1 8 7 6 5 6 15
36 36 35 34 33 31 28 24 21 18 12 8 4 2 3 3 5 5 2 5 2 5 3 4 3 3 9 7 5 6 5 5 6 11 6 3 5 6 6 8 8 14 17 15 16 19 13
32 32 30 30 28 27 26 24 20 15 10 3 2 4 4 4 2 4 1 3 5 3 3 4 5 8 4 9 11 16 13 8 6 5 5 2 5 4 6 1 6 14 21 20 20 13 20
24 22 21 20 18 18 17 16 13 9 5 3 6 6 3 2 2 4 5 6 7 2 4 4 6 3 5 9 12 5 14 12 14 14 10 7 10 6 7 3 12 15 12 8 6 9 8
21 17 16 14 13 12 11 10 7 4 3 4 5 7 4 4 3 3 3 1 2 4 5 7 4 2 6 19 27 23 28 23 20 17 7 12 9 1 5 5 7 5 3 9 15 18 17
20 16 13 11 10 9 8 7 5 2 1 3 3 4 4 3 2 5 7 3 10 9 5 5 4 6 22 2 4 8 4 6 8 12 4 1 9 5 5 5 11 7 7 7 6 12 16
17 16 12 8 7 7 6 5 4 3 5 3 2 4 4 4 6 3 2 1 1 3 6 3 5 11 16 2 4 11 14 12 12 9 7 9 7 7 6 7 8 3 5 7 8 7 7
19 17 15 12 9 7 6 5 4 2 5 8 6 4 4 2 7 5 2 1 4 2 3 5 14 4 0 4 6 8 10 6 15 15 11 7 5 17 11 11 11 17 14 14 6 7 7
20 18 16 14 12 11 10 8 4 3 3 8 9 9 9 5 8 8 10 8 4 1 3 7 3 5 1 6 6 7 9 12 8 8 13 17 16 9 6 9 17 21 15 14 9 8 12
20 19 16 13 12 11 11 10 7 3 2 4 11 13 12 11 9 8 17 26 20 15 5 6 2 3 4 3 1 2 5 6 7 12 2 10 12 8 18 11 2 33 16 30 16 18 17
Wind_Direction_500mb
53 53 52 52 56 59 67 94 155 188 196 195 185 170 168 176 178 181 171 167 109 15 8 8 5 1 20 75 79 94 83 61 39 37 34 42 36 84 66 105 136 21 83 81 113 130 121
51 51 50 47 47 50 55 64 81 110 145 160 158 159 170 178 183 186 185 193 262 356 0 2 2 357 25 84 67 58 45 27 33 54 46 42 35 48 86 72 63 45 107 116 77 103 102
50 48 49 48 45 42 43 51 65 87 115 135 150 163 168 171 187 195 199 219 272 334 348 350 354 1 58 79 37 52 41 35 61 53 50 37 37 27 16 84 58 105 103 102 45 58 84
49 48 46 45 44 42 36 34 40 56 85 115 148 160 162 171 191 196 203 232 267 310 331 336 346 356 25 43 59 75 57 52 74 40 44 38 24 66 63 91 40 73 96 162 20 84 147
48 47 45 44 42 40 39 33 27 26 69 110 139 154 165 173 179 189 207 229 246 277 308 325 340 355 42 65 63 40 60 37 72 26 19 23 60 64 59 113 117 39 93 117 106 56 173
45 45 44 43 42 39 37 34 28 25 24 145 156 167 170 157 156 180 221 215 224 258 292 325 316 357 61 6 2 7 54 359 349 8 95 59 59 78 67 190 91 75 114 88 134 67 202
40 41 41 41 39 38 36 32 31 29 31 52 187 174 150 141 98 66 25 146 145 104 275 177 294 294 329 350 10 59 165 332 55 69 61 23 95 80 66 87 112 120 111 101 182 176 276
36 34 35 36 36 35 34 33 31 32 30 40 97 148 143 111 93 79 94 92 80 73 329 233 258 281 308 332 23 67 76 79 53 92 112 96 96 91 102 86 100 105 98 36 279 353 319
28 28 29 29 30 30 30 32 31 30 29 25 53 145 134 111 96 100 73 64 54 33 23 283 241 267 294 67 26 41 45 92 76 93 83 112 115 146 91 73 59 50 39 296 303 345 68
18 19 22 22 22 23 25 26 28 27 26 20 15 149 134 116 94 102 60 55 32 14 60 289 223 228 198 185 5 73 80 90 73 106 91 84 136 176 58 76 347 289 258 283 287 294 315
6 7 10 12 13 15 17 19 21 23 22 18 13 162 138 106 103 75 47 38 8 344 131 106 185 211 179 167 140 76 84 73 121 117 214 106 170 162 58 26 254 11 6 6 358 154 212
354 356 358 0 2 4 7 10 11 15 18 15 17 179 159 111 94 65 54 356 336 30 143 66 158 151 142 105 116 114 100 84 96 75 50 78 280 9 90 106 52 334 249 66 88 161 192
342 345 347 350 352 352 355 359 0 5 11 12 14 138 175 142 107 96 282 322 50 166 330 76 143 164 160 144 110 47 62 51 121 138 82 44 8 330 191 228 164 14 352 328 222 348 340
334 337 339 340 342 343 343 347 351 353 359 6 8 29 190 194 171 68 44 64 170 280 274 337 15 106 183 148 77 84 112 139 78 95 127 197 212 343 6 14 348 48 355 312 311 310 319
327 331 333 335 336 337 336 336 340 344 346 356 360 359 182 202 190 172 78 77 229 210 311 328 309 141 142 138 122 126 139 169 162 190 186 174 234 14 41 60 328 130 260 65 114 118 263
317 322 326 329 332 333 333 331 332 335 338 345 353 129 165 189 177 175 92 227 245 229 316 316 259 215 161 138 162 190 180 144 147 360 281 166 217 71 97 125 54 282 129 228 105 288 295
311 319 324 324 327 332 331 331 331 333 334 336 346 157 84 160 156 146 178 227 269 281 241 246 276 138 115 133 134 153 163 108 351 80 92 126 119 125 239 23 294 154 190 66 64 304 283
301 309 315 322 326 327 333 333 333 335 341 331 340 113 69 172 101 60 161 195 295 290 277 260 221 167 143 135 110 129 152 52 347 146 88 44 109 253 352 347 289 342 19 178 223 203 188
291 300 306 310 316 324 325 331 337 341 351 357 338 220 82 185 167 188 219 245 258 319 304 287 215 132 87 116 112 122 115 19 59 93 150 176 52 309 186 169 135 171 121 106 95 82 214
285 290 294 298 304 309 319 326 331 340 344 345 332 312 74 147 116 145 153 112 307 306 240 311 151 104 113 91 35 139 128 32 77 102 122 114 129 197 249 295 284 258 199 206 233 241 284
279 284 289 292 293 296 301 310 325 332 334 340 359 96 105 107 64 105 131 142 163 337 357 5 152 234 157 130 121 151 149 142 78 138 77 102 189 206 261 245 234 266 268 251 236 256 251
275 280 283 287 293 293 292 296 303 318 326 291 146 163 112 100 64 156 5 174 166 277 264 21 57 356 193 159 187 192 162 197 183 143 109 58 155 188 265 320 241 275 279 261 253 257 256
268 274 280 287 296 301 302 300 299 308 326 181 156 140 124 26 98 173 162 167 181 228 204 246 330 264 231 257 257 272 169 158 164 161 149 153 151 174 277 329 310 270 236 213 240 215 247
262 268 278 287 298 308 313 315 310 332 43 130 138 157 161 154 185 161 167 340 221 327 300 326 22 168 347 108 103 102 78 94 93 67 122 140 124 133 293 307 246 61 205 280 259 278 233
251 257 265 280 291 310 326 328 319 291 48 77 113 145 157 139 157 213 175 289 313 308 250 269 1 326 179 329 140 111 40 133 75 38 50 165 140 136 259 245 314 232 193 184 185 287 229
234 241 244 250 272 293 315 330 320 235 219 188 144 138 143 129 204 156 158 121 189 327 295 284 289 337 177 84 155 179 207 210 189 159 78 88 76 218 167 232 260 243 168 162 157 279 226
229 233 238 242 249 269 293 318 350 336 231 213 203 191 176 183 197 180 177 155 155 145 262 321 339 345 89 187 207 182 202 202 177 192 168 158 162 220 209 239 270 247 162 150 225 257 219
229 232 236 242 249 256 267 279 299 356 291 227 209 205 200 230 225 196 209 212 194 75 301 346 265 55 294 223 232 192 213 200 183 167 179 188 172 191 173 223 262 171 136 197 217 245 251
220 225 230 232 240 250 261 267 274 274 276 245 240 226 223 233 249 220 228 237 243 253 292 327 11 326 24 281 167 304 214 180 216 227 176 206 207 192 195 216 216 192 218 220 268 278 269
Wind_Speed_850mb
49 41 30 23 17 12 8 4 3 5 5 5 7 9 9 8 8 9 9 7 1 5 10 13 16 20 22 12 15 15 11 8 10 14 17 13 19 7 7 4 10 2 7 9 13 21 22
54 52 46 34 24 18 13 10 6 4 5 7 9 9 8 8 8 8 8 6 1 5 9 12 15 20 14 11 15 11 11 13 12 13 14 14 11 10 8 5 5 7 15 17 12 17 11
55 54 52 48 39 26 17 12 9 7 6 6 7 7 8 8 7 8 8 6 3 4 8 12 15 20 8 7 12 11 14 16 14 16 12 10 10 11 5 4 8 10 11 16 16 8 8
51 52 53 52 48 42 28 15 8 5 4 4 5 6 7 6 7 7 7 6 5 4 7 10 14 15 3 8 9 11 10 13 10 15 12 6 8 10 6 5 8 7 8 13 7 3 9
46 48 50 50 50 48 43 29 13 5 2 4 5 5 5 5 5 5 6 7 5 4 6 9 10 13 6 9 10 7 6 9 6 9 10 7 6 9 5 6 5 11 6 9 7 6 8
42 44 46 47 48 48 48 43 28 12 3 2 3 4 3 4 4 4 4 6 4 4 4 5 6 4 9 13 9 6 1 5 2 4 4 6 10 5 5 2 7 6 8 7 9 5 11
38 40 42 44 45 47 48 49 42 24 10 2 2 3 4 4 5 9 1 6 2 2 1 2 6 8 6 18 3 3 1 2 3 13 5 11 8 11 8 11 13 14 7 3 5 6 6
34 36 38 40 41 43 45 47 48 35 20 8 2 4 6 8 15 19 17 12 10 1 3 7 11 16 15 10 4 9 7 3 8 7 1 6 13 6 12 12 12 7 4 6 4 5 8
30 33 35 37 39 40 42 44 45 44 29 15 4 5 9 16 14 16 21 18 13 9 1 3 8 10 3 1 2 6 6 9 11 9 6 8 9 8 2 7 6 4 3 2 8 10 2
28 30 32 34 36 37 39 40 40 41 36 24 7 5 13 12 13 15 18 15 14 11 5 5 5 4 9 4 4 2 6 4 6 13 11 11 4 2 3 5 2 2 2 7 10 8 14
26 29 31 32 34 35 36 37 37 37 36 29 13 5 14 13 12 17 11 10 10 6 5 1 5 3 12 8 7 4 5 3 7 8 6 5 12 4 2 4 1 4 6 4 3 4 5
23 26 29 31 33 33 34 35 35 34 34 30 17 5 16 13 13 11 6 7 7 3 2 3 4 6 10 4 3 6 6 14 8 9 14 5 0 1 2 4 5 4 4 6 5 2 5
23 25 27 29 32 34 33 33 34 33 31 29 22 4 19 10 6 4 3 6 3 2 5 3 2 5 8 6 4 4 5 6 2 5 3 3 3 4 2 6 6 7 9 6 2 1 4
23 25 27 29 30 32 33 33 32 33 30 27 22 5 19 16 8 3 4 6 2 2 6 5 5 5 11 9 4 4 6 7 5 5 5 6 5 1 5 4 4 7 3 3 8 7 11
23 26 28 30 31 32 33 33 31 30 30 24 20 5 8 21 16 3 2 2 5 7 4 9 2 4 4 5 6 6 1 8 4 6 7 9 5 1 9 4 6 5 1 4 5 1 6
25 27 29 31 32 33 33 33 31 29 27 24 20 6 5 15 25 10 5 5 5 7 8 3 2 1 6 5 10 10 12 3 5 1 2 8 4 1 5 5 19 3 13 3 2 6 8
23 26 28 30 32 33 34 34 32 29 24 19 13 7 3 22 19 6 4 6 7 11 7 4 2 3 5 6 5 6 9 3 0 5 6 6 1 3 5 5 2 5 4 8 2 3 5
26 26 27 29 30 30 31 32 32 30 23 13 4 3 2 24 6 3 5 7 4 9 6 10 4 3 4 5 6 5 7 2 5 4 5 3 5 4 4 3 9 4 1 3 5 5 1
29 29 29 29 29 28 28 29 29 27 25 19 13 2 2 22 6 4 3 4 6 6 6 3 6 1 2 6 6 4 5 4 4 5 8 11 4 3 4 5 4 3 5 7 8 1 12
34 33 33 33 30 29 26 25 24 22 18 16 7 1 4 8 8 8 7 2 4 6 5 4 2 4 5 5 9 7 5 3 4 9 15 9 6 6 5 4 1 8 7 6 5 6 15
36 36 35 34 33 31 28 24 21 18 12 8 4 2 3 3 5 5 2 5 2 5 3 4 3 3 9 7 5 6 5 5 6 11 6 3 5 6 6 8 8 14 17 15 16 19 13
32 32 30 30 28 27 26 24 20 15 10 3 2 4 4 4 2 4 1 3 5 3 3 4 5 8 4 9 11 16 13 8 6 5 5 2 5 4 6 1 6 14 21 20 20 13 20
24 22 21 20 18 18 17 16 13 9 5 3 6 6 3 2 2 4 5 6 7 2 4 4 6 3 5 9 12 5 14 12 14 14 10 7 10 6 7 3 12 15 12 8 6 9 8
21 17 16 14 13 12 11 10 7 4 3 4 5 7 4 4 3 3 3 1 2 4 5 7 4 2 6 19 27 23 28 23 20 17 7 12 9 1 5 5 7 5 3 9 15 18 17
20 16 13 11 10 9 8 7 5 2 1 3 3 4 4 3 2 5 7 3 10 9 5 5 4 6 22 2 4 8 4 6 8 12 4 1 9 5 5 5 11 7 7 7 6 12 16
17 16 12 8 7 7 6 5 4 3 5 3 2 4 4 4 6 3 2 1 1 3 6 3 5 11 16 2 4 11 14 12 12 9 7 9 7 7 6 7 8 3 5 7 8 7 7
19 17 15 12 9 7 6 5 4 2 5 8 6 4 4 2 7 5 2 1 4 2 3 5 14 4 0 4 6 8 10 6 15 15 11 7 5 17 11 11 11 17 14 14 6 7 7
20 18 16 14 12 11 10 8 4 3 3 8 9 9 9 5 8 8 10 8 4 1 3 7 3 5 1 6 6 7 9 12 8 8 13 17 16 9 6 9 17 21 15 14 9 8 12
20 19 16 13 12 11 11 10 7 3 2 4 11 13 12 11 9 8 17 26 20 15 5 6 2 3 4 3 1 2 5 6 7 12 2 10 12 8 18 11 2 33 16 30 16 18 17
Wind_Direction_850mb
53 53 52 52 56 59 67 94 155 188 196 195 185 170 168 176 178 181 171 167 109 15 8 8 5 1 20 75 79 94 83 61 39 37 34 42 36 84 66 105 136 21 83 81 113 130 121
51 51 50 47 47 50 55 64 81 110 145 160 158 159 170 178 183 186 185 193 262 356 0 2 2 357 25 84 67 58 45 27 33 54 46 42 35 48 86 72 63 45 107 116 77 103 102
50 48 49 48 45 42 43 51 65 87 115 135 150 163 168 171 187 195 199 219 272 334 348 350 354 1 58 79 37 52 41 35 61 53 50 37 37 27 16 84 58 105 103 102 45 58 84
49 48 46 45 44 42 36 34 40 56 85 115 148 160 162 171 191 196 203 232 267 310 331 336 346 356 25 43 59 75 57 52 74 40 44 38 24 66 63 91 40 73 96 162 20 84 147
48 47 45 44 42 40 39 33 27 26 69 110 139 154 165 173 179 189 207 229 246 277 308 325 340 355 42 65 63 40 60 37 72 26 19 23 60 64 59 113 117 39 93 117 106 56 173
45 45 44 43 42 39 37 34 28 25 24 145 156 167 170 157 156 180 221 215 224 258 292 325 316 357 61 6 2 7 54 359 349 8 95 59 59 78 67 190 91 75 114 88 134 67 202
40 41 41 41 39 38 36 32 31 29 31 52 187 174 150 141 98 66 25 146 145 104 275 177 294 294 329 350 10 59 165 332 55 69 61 23 95 80 66 87 112 120 111 101 182 176 276
36 34 35 36 36 35 34 33 31 32 30 40 97 148 143 111 93 79 94 92 80 73 329 233 258 281 308 332 23 67 76 79 53 92 112 96 96 91 102 86 100 105 98 36 279 353 319
28 28 29 29 30 30 30 32 31 30 29 25 53 145 134 111 96 100 73 64 54 33 23 283 241 267 294 67 26 41 45 92 76 93 83 112 115 146 91 73 59 50 39 296 303 345 68
18 19 22 22 22 23 25 26 28 27 26 20 15 149 134 116 94 102 60 55 32 14 60 289 223 228 198 185 5 73 80 90 73 106 91 84 136 176 58 76 347 289 258 283 287 294 315
6 7 10 12 13 15 17 19 21 23 22 18 13 162 138 106 103 75 47 38 8 344 131 106 185 211 179 167 140 76 84 73 121 117 214 106 170 162 58 26 254 11 6 6 358 154 212
354 356 358 0 2 4 7 10 11 15 18 15 17 179 159 111 94 65 54 356 336 30 143 66 158 151 142 105 116 114 100 84 96 75 50 78 280 9 90 106 52 334 249 66 88 161 192
342 345 347 350 352 352 355 359 0 5 11 12 14 138 175 142 107 96 282 322 50 166 330 76 143 164 160 144 110 47 62 51 121 138 82 44 8 330 191 228 164 14 352 328 222 348 340
334 337 339 340 342 343 343 347 351 353 359 6 8 29 190 194 171 68 44 64 170 280 274 337 15 106 183 148 77 84 112 139 78 95 127 197 212 343 6 14 348 48 355 312 311 310 319
327 331 333 335 336 337 336 336 340 344 346 356 360 359 182 202 190 172 78 77 229 210 311 328 309 141 142 138 122 126 139 169 162 190 186 174 234 14 41 60 328 130 260 65 114 118 263
317 322 326 329 332 333 333 331 332 335 338 345 353 129 165 189 177 175 92 227 245 229 316 316 259 215 161 138 162 190 180 144 147 360 281 166 217 71 97 125 54 282 129 228 105 288 295
311 319 324 324 327 332 331 331 331 333 334 336 346 157 84 160 156 146 178 227 269 281 241 246 276 138 115 133 134 153 163 108 351 80 92 126 119 125 239 23 294 154 190 66 64 304 283
301 309 315 322 326 327 333 333 333 335 341 331 340 113 69 172 101 60 161 195 295 290 277 260 221 167 143 135 110 129 152 52 347 146 88 44 109 253 352 347 289 342 19 178 223 203 188
291 300 306 310 316 324 325 331 337 341 351 357 338 220 82 185 167 188 219 245 258 319 304 287 215 132 87 116 112 122 115 19 59 93 150 176 52 309 186 169 135 171 121 106 95 82 214
285 290 294 298 304 309 319 326 331 340 344 345 332 312 74 147 116 145 153 112 307 306 240 311 151 104 113 91 35 139 128 32 77 102 122 114 129 197 249 295 284 258 199 206 233 241 284
279 284 289 292 293 296 301 310 325 332 334 340 359 96 105 107 64 105 131 142 163 337 357 5 152 234 157 130 121 151 149 142 78 138 77 102 189 206 261 245 234 266 268 251 236 256 251
275 280 283 287 293 293 292 296 303 318 326 291 146 163 112 100 64 156 5 174 166 277 264 21 57 356 193 159 187 192 162 197 183 143 109 58 155 188 265 320 241 275 279 261 253 257 256
268 274 280 287 296 301 302 300 299 308 326 181 156 140 124 26 98 173 162 167 181 228 204 246 330 264 231 257 257 272 169 158 164 161 149 153 151 174 277 329 310 270 236 213 240 215 247
262 268 278 287 298 308 313 315 310 332 43 130 138 157 161 154 185 161 167 340 221 327 300 326 22 168 347 108 103 102 78 94 93 67 122 140 124 133 293 307 246 61 205 280 259 278 233
251 257 265 280 291 310 326 328 319 291 48 77 113 145 157 139 157 213 175 289 313 308 250 269 1 326 179 329 140 111 40 133 75 38 50 165 140 136 259 245 314 232 193 184 185 287 229
234 241 244 250 272 293 315 330 320 235 219 188 144 138 143 129 204 156 158 121 189 327 295 284 289 337 177 84 155 179 207 210 189 159 78 88 76 218 167 232 260 243 168 162 157 279 226
229 233 238 242 249 269 293 318 350 336 231 213 203 191 176 183 197 180 177 155 155 145 262 321 339 345 89 187 207 182 202 202 177 192 168 158 162 220 209 239 270 247 162 150 225 257 219
229 232 236 242 249 256 267 279 299 356 291 227 209 205 200 230 225 196 209 212 194 75 301 346 265 55 294 223 232 192 213 200 183 167 179 188 172 191 173 223 262 171 136 197 217 245 251
220 225 230 232 240 250 261 267 274 274 276 245 240 226 223 233 249 220 228 237 243 253 292 327 11 326 24 281 167 304 214 180 216 227 176 206 207 192 195 216 216 192 218 220 268 278 269